Location: Gorze? G�rny
(49.8500°N, 19.5000°E)
Time: 04:56:23
(UTC+00:00)

SL-27 R/B - Pass Details

Date: 13 May 2021
Orbit: 418 x 468 km, 74.7° (Epoch: 20 June)

Event Time Altitude Azimuth Distance (km) Brightness Sun altitude
Rises 21:33:26 0° 344° (NNW) 2,384 7.7 -20.0°
Reaches altitude 10° 21:35:37 10° 355° (N) 1,519 6.2 -20.1°
Maximum altitude 21:38:40 33° 61° (ENE) 747 3.6 -20.3°
Enters shadow 21:38:59 32° 74° (ENE) 759 3.5 -20.3°
